Waterbury, CT

9:43 PM EDT on September 25, 2016 (GMT -0400)
Waterbury-Oxford

Weather History for KOXC - April, 2013

Change the Weather History Date:

Wednesday, April 10, 2013

  Actual Average Record
Temperature  
Mean Temperature 57 °F -  
Max Temperature 66 °F 53 °F 69 °F (2005)
Min Temperature 48 °F 34 °F 24 °F (1997)
Degree Days  
Heating Degree Days 8    
Growing Degree Days 7 (Base 50)    
Moisture  
Dew Point 45 °F    
Average Humidity 74    
Maximum Humidity 88    
Minimum Humidity 48    
Precipitation  
Precipitation 0.15 in - - ()
Sea Level Pressure  
Sea Level Pressure 29.91 in    
Wind  
Wind Speed 6 mph (East)    
Max Wind Speed 18 mph    
Max Gust Speed 30 mph    
Visibility 9 miles    
Events Rain , Thunderstorm    
Averages and records for this station are not official NWS values.
T = Trace of Precipitation, MM = Missing Value Source: NWS Daily Summary

Daily Weather History Graph

Daily Weather History Graph

Search for Another Location

Airport or City:

Trip Planner

Search our weather history database for the weather conditions in past years. The results will help you decide how hot, cold, wet, or windy it might be!

Date:

Astronomy

Apr. 10, 2013 Rise Set
Actual Time 6:20 AM EDT 7:27 PM EDT
Civil Twilight 5:52 AM EDT 7:56 PM EDT
Nautical Twilight 5:18 AM EDT 8:30 PM EDT
Astronomical Twilight 4:42 AM EDT 9:06 PM EDT
Moon 6:14 AM EDT (4/10) 8:01 PM EDT (4/10)
Length of Visible Light 14h 04m
Length of Day
13h 07m
New Moon, 0% of the Moon is Illuminated
Apr 10
New Moon
Apr 18
First Quarter
Apr 25
Full
May 2
Last Quarter
May 9
New

Hourly Weather History & Observations

Time (EDT) Temp. Dew Point Humidity Pressure Visibility Wind Dir Wind Speed Gust Speed Precip Events Conditions
12:15 AM 57.2 °F 37.4 °F 48% 29.95 in 10.0 mi East 6.9 mph - N/A   Mostly Cloudy
12:35 AM 57.2 °F 37.4 °F 48% 29.94 in 10.0 mi SE 6.9 mph - N/A   Mostly Cloudy
12:55 AM 57.2 °F 37.4 °F 48% 29.94 in 10.0 mi ESE 5.8 mph - N/A   Mostly Cloudy
1:55 AM 57.2 °F 39.2 °F 51% 29.89 in 10.0 mi ESE 5.8 mph - N/A   Mostly Cloudy
2:15 AM 57.2 °F 39.2 °F 51% 29.87 in 10.0 mi SE 5.8 mph - N/A   Mostly Cloudy
2:35 AM 57.2 °F 39.2 °F 51% 29.86 in 10.0 mi ESE 4.6 mph - N/A   Overcast
2:55 AM 55.4 °F 39.2 °F 54% 29.89 in 10.0 mi NNE 11.5 mph - N/A   Overcast
3:15 AM 51.8 °F 42.8 °F 71% 29.96 in 9.0 mi NNE 18.4 mph 29.9 mph 0.06 in Thunderstorm Thunderstorm
3:35 AM 50.0 °F 42.8 °F 76% 29.93 in 10.0 mi NE 13.8 mph 17.3 mph 0.10 in   Mostly Cloudy
3:55 AM 48.2 °F 44.6 °F 87% 29.92 in 10.0 mi NNE 10.4 mph - 0.10 in   Mostly Cloudy
4:35 AM 48.2 °F 44.6 °F 87% 29.88 in 10.0 mi NE 5.8 mph - N/A   Scattered Clouds
4:55 AM 48.2 °F 44.6 °F 87% 29.88 in 10.0 mi NE 4.6 mph - N/A   Mostly Cloudy
5:15 AM 48.2 °F 44.6 °F 87% 29.89 in 10.0 mi Calm Calm - N/A   Scattered Clouds
5:35 AM 48.2 °F 44.6 °F 87% 29.90 in 10.0 mi North 5.8 mph - N/A   Scattered Clouds
5:45 AM 48.2 °F 44.6 °F 87% 29.90 in 10.0 mi Calm Calm - N/A   Mostly Cloudy
6:45 AM 48.2 °F 44.6 °F 87% 29.92 in 10.0 mi Calm Calm - N/A   Mostly Cloudy
7:45 AM 48.2 °F 44.6 °F 87% 29.95 in 10.0 mi North 4.6 mph - N/A   Mostly Cloudy
8:02 AM 48.2 °F 44.6 °F 87% 29.95 in 10.0 mi NE 4.6 mph - N/A   Mostly Cloudy
8:45 AM 50.0 °F 44.6 °F 82% 29.96 in 10.0 mi NE 4.6 mph - N/A   Overcast
9:34 AM 51.8 °F 46.4 °F 82% 29.96 in 10.0 mi NNE 3.5 mph - N/A   Mostly Cloudy
9:45 AM 53.6 °F 46.4 °F 77% 29.96 in 10.0 mi NNE 4.6 mph - N/A   Scattered Clouds
10:45 AM 57.2 °F 48.2 °F 72% 29.96 in 10.0 mi Calm Calm - N/A   Partly Cloudy
11:45 AM 60.8 °F 50.0 °F 68% 29.98 in 10.0 mi North 5.8 mph - N/A   Overcast
12:45 PM 60.8 °F 50.0 °F 68% 29.98 in 10.0 mi West 3.5 mph - N/A   Overcast
1:45 PM 62.6 °F 51.8 °F 68% 29.96 in 10.0 mi NE 5.8 mph - N/A   Overcast
2:45 PM 62.6 °F 50.0 °F 63% 29.96 in 10.0 mi NNE 8.1 mph - N/A   Overcast
3:45 PM 64.4 °F 51.8 °F 64% 29.92 in 10.0 mi North 5.8 mph - N/A   Overcast
4:45 PM 66.2 °F 51.8 °F 60% 29.89 in 10.0 mi Variable 3.5 mph - N/A   Scattered Clouds
5:45 PM 64.4 °F 51.8 °F 64% 29.87 in 10.0 mi SSE 11.5 mph - N/A   Clear
6:45 PM 60.8 °F 48.2 °F 63% 29.88 in 10.0 mi South 6.9 mph - N/A   Mostly Cloudy
7:27 PM 57.2 °F 46.4 °F 67% 29.97 in 3.0 mi West 11.5 mph 18.4 mph N/A Rain , Thunderstorm Thunderstorms and Rain
8:30 PM 51.8 °F 48.2 °F 88% 29.88 in 7.0 mi South 5.8 mph - N/A   Scattered Clouds
8:50 PM 51.8 °F 46.4 °F 82% 29.88 in 7.0 mi Calm Calm - N/A   Clear
9:15 PM 51.8 °F 46.4 °F 82% 29.86 in 10.0 mi ESE 5.8 mph - N/A   Clear
9:35 PM 51.8 °F 46.4 °F 82% 29.86 in 10.0 mi SSE 3.5 mph - N/A   Clear
9:55 PM 51.8 °F 46.4 °F 82% 29.88 in 9.0 mi SSE 4.6 mph - N/A   Mostly Cloudy
10:15 PM 50.0 °F 46.4 °F 87% 29.90 in 5.0 mi Calm Calm - 0.02 in   Overcast
10:55 PM 50.0 °F 46.4 °F 87% 29.89 in 3.0 mi South 3.5 mph - 0.04 in   Overcast
11:15 PM 50.0 °F 46.4 °F 87% 29.88 in 3.0 mi South 5.8 mph - N/A   Overcast
11:35 PM 50.0 °F 46.4 °F 87% 29.87 in 3.0 mi South 6.9 mph - N/A   Overcast
11:55 PM 51.8 °F 46.4 °F 82% 29.87 in 5.0 mi SSW 4.6 mph - 0.01 in   Mostly Cloudy